GLENN Weather Reports


Display with metric or nautical units.
time (UTC)temp
F
wind
direction
speed
MPH
gust
MPH
rain 1hr
in
rain 24hr
in
rain mn
in
humidity
%
barometer
mb
20260904041532 67 123 1.0 3.0 0.00 0.00 0.00 28 1011.6
20260904040011 67 86 1.0 2.0 0.00 0.00 0.00 29 1011.8
20260904034519 67 80 2.0 4.0 0.00 0.00 0.00 30 1012.0
20260904033025 67 96 4.0 7.0 0.00 0.00 0.00 30 1012.2
20260904031529 68 110 3.0 6.0 0.00 0.00 0.00 30 1012.4
20260904030031 68 121 4.0 9.0 0.00 0.00 0.00 29 1012.6
20260904024516 68 139 7.0 11.0 0.00 0.00 0.00 30 1012.6
20260904023020 67 136 7.0 12.0 0.00 0.00 0.00 31 1012.5
20260904021527 67 165 6.0 11.0 0.00 0.00 0.00 31 1012.5
20260904020028 68 166 5.0 13.0 0.00 0.00 0.00 32 1012.4
20260904014534 67 161 5.0 8.0 0.00 0.00 0.00 33 1012.3
20260904013004 67 150 3.0 5.0 0.00 0.00 0.00 34 1012.2
20260904011505 69 215 7.0 12.0 0.00 0.00 0.00 31 1012.1
20260904010004 69 192 4.0 8.0 0.00 0.00 0.00 32 1012.1
20260904004503 71 205 6.0 11.0 0.00 0.00 0.00 30 1012.0
20260904003004 72 197 5.0 9.0 0.00 0.00 0.00 31 1011.8
20260904001505 71 205 5.0 13.0 0.00 0.00 0.00 31 1011.7
20260904000005 71 185 8.0 15.0 0.00 0.00 0.00 30 1011.9
20260903234510 71 223 2.0 9.0 0.00 0.00 0.00 34 1011.7
20260903233002 72 197 2.0 7.0 0.00 0.00 0.00 29 1011.7
20260903231504 70 105 2.0 6.0 0.00 0.00 0.00 32 1011.8
20260903230009 70 54 0.0 3.0 0.00 0.00 0.00 36 1011.8
20260903224513 70 57 0.0 2.0 0.00 0.00 0.00 37 1012.0
20260903223003 70 5 0.0 2.0 0.00 0.00 0.00 38 1012.0
20260903221505 70 352 0.0 7.0 0.00 0.00 0.00 35 1012.0
20260903220007 70 360 3.0 6.0 0.00 0.00 0.00 34 1011.9
20260903214504 71 327 5.0 8.0 0.00 0.00 0.00 32 1012.0
20260903213004 71 254 2.0 5.0 0.00 0.00 0.00 32 1011.8
20260903211508 71 166 2.0 8.0 0.00 0.00 0.00 32 1011.8
20260903210009 72 276 3.0 7.0 0.00 0.00 0.00 33 1011.8
20260903204510 73 213 4.0 5.0 0.00 0.00 0.00 30 1011.8
20260903203015 73 47 1.0 8.0 0.00 0.00 0.00 31 1011.8
20260903201508 73 24 3.0 9.0 0.00 0.00 0.00 29 1011.8
20260903200009 73 56 3.0 9.0 0.00 0.00 0.00 32 1012.2
20260903194517 71 128 2.0 8.0 0.00 0.00 0.00 34 1012.3
20260903193010 72 323 2.0 8.0 0.00 0.00 0.00 31 1012.4
20260903191512 70 318 6.0 11.0 0.00 0.00 0.00 32 1012.7
20260903190012 69 319 2.0 9.0 0.00 0.00 0.00 33 1012.7
20260903184513 69 237 3.0 9.0 0.00 0.00 0.00 31 1013.0
20260903183011 70 360 3.0 8.0 0.00 0.00 0.00 33 1013.0
20260903181512 68 53 2.0 9.0 0.00 0.00 0.00 35 1013.0
20260903180016 66 41 2.0 5.0 0.00 0.00 0.00 35 1013.3
20260903174514 66 341 2.0 3.0 0.00 0.00 0.00 33 1013.2
20260903173019 67 291 1.0 7.0 0.00 0.00 0.00 34 1013.3
20260903171516 67 327 2.0 7.0 0.00 0.00 0.00 33 1013.3
20260903170014 66 336 3.0 6.0 0.00 0.00 0.00 34 1013.2
20260903164517 66 269 3.0 9.0 0.00 0.00 0.00 33 1013.4
20260903163003 66 192 4.0 7.0 0.00 0.00 0.00 33 1013.4
20260903161505 65 199 5.0 9.0 0.00 0.00 0.00 36 1013.4
20260903160014 64 202 4.0 10.0 0.00 0.00 0.00 35 1013.3
20260903154509 64 179 3.0 8.0 0.00 0.00 0.00 37 1013.3
20260903153009 63 179 4.0 8.0 0.00 0.00 0.00 37 1013.4
20260903151504 62 194 5.0 10.0 0.00 0.00 0.00 38 1013.5
20260903150011 62 154 6.0 10.0 0.00 0.00 0.00 38 1013.5
20260903144510 62 162 6.0 9.0 0.00 0.00 0.00 38 1013.6
20260903143020 59 151 6.0 10.0 0.00 0.00 0.00 40 1013.7
20260903141512 59 148 5.0 9.0 0.00 0.00 0.00 40 1013.4
20260903140015 58 136 6.0 9.0 0.00 0.00 0.00 41 1013.5
20260903134511 56 149 6.0 10.0 0.00 0.00 0.00 42 1013.3
20260903133015 57 167 6.0 11.0 0.00 0.00 0.00 41 1013.4
20260903131512 57 165 5.0 10.0 0.00 0.00 0.00 40 1013.2
20260903130017 56 169 1.0 5.0 0.00 0.00 0.00 42 1012.8
20260903124509 56 221 1.0 3.0 0.00 0.00 0.00 40 1012.6
20260903123012 56 73 0.0 2.0 0.00 0.00 0.00 41 1012.3
20260903121528 56 89 0.0 3.0 0.00 0.00 0.00 41 1012.3
20260903120018 57 225 0.0 6.0 0.00 0.00 0.00 40 1012.2
20260903114517 57 312 2.0 4.0 0.00 0.00 0.00 38 1012.1
20260903113022 57 279 2.0 6.0 0.00 0.00 0.00 38 1012.0
20260903111519 56 44 1.0 3.0 0.00 0.00 0.00 41 1011.8
20260903110019 57 35 0.0 0.0 0.00 0.00 0.00 39 1011.6
20260903104520 55 88 3.0 5.0 0.00 0.00 0.00 40 1011.3
20260903103008 54 96 1.0 4.0 0.00 0.00 0.00 50 1011.0
20260903101513 54 68 1.0 7.0 0.00 0.00 0.00 51 1011.1
20260903100022 57 254 2.0 4.0 0.00 0.00 0.00 41 1010.9
20260903094522 58 90 2.0 3.0 0.00 0.00 0.00 37 1010.7
20260903093027 56 86 3.0 3.0 0.00 0.00 0.00 41 1010.7
20260903091517 55 84 0.0 3.0 0.00 0.00 0.00 45 1011.0
20260903090016 56 88 1.0 2.0 0.00 0.00 0.00 44 1010.9
20260903084525 56 97 3.0 6.0 0.00 0.00 0.00 39 1010.8
20260903083028 52 112 1.0 3.0 0.00 0.00 0.00 51 1011.0
20260903081525 52 119 2.0 3.0 0.00 0.00 0.00 54 1011.1
20260903080013 56 277 0.0 2.0 0.00 0.00 0.00 45 1010.9
20260903074518 55 78 2.0 5.0 0.00 0.00 0.00 47 1010.8
20260903073005 54 73 2.0 4.0 0.00 0.00 0.00 47 1011.1
20260903071505 54 90 2.0 6.0 0.00 0.00 0.00 50 1011.1
20260903070011 55 94 0.0 3.0 0.00 0.00 0.00 48 1011.0
20260903064526 53 107 2.0 6.0 0.00 0.00 0.00 55 1011.0
20260903063005 53 123 0.0 2.0 0.00 0.00 0.00 52 1011.1
20260903061506 53 140 2.0 5.0 0.00 0.00 0.00 55 1011.0
20260903060015 57 190 2.0 3.0 0.00 0.00 0.00 47 1010.8
20260903054514 55 84 2.0 4.0 0.00 0.00 0.00 47 1011.0
20260903053018 56 69 1.0 4.0 0.00 0.00 0.00 47 1011.3
20260903051503 56 155 2.0 4.0 0.00 0.00 0.00 49 1011.5
20260903050009 57 271 0.0 2.0 0.00 0.00 0.00 45 1011.4
20260903044512 57 140 0.0 4.0 0.00 0.00 0.00 43 1011.2
20260903043018 57 88 2.0 4.0 0.00 0.00 0.00 42 1011.2